Weather History for EGFF - November, 2013

Change the Weather History Date:

Tuesday, November 26, 2013

  Actual Average Record
Temperature  
Mean Temperature 36 °F -  
Max Temperature 44 °F 47 °F 55 °F (2004)
Min Temperature 28 °F 37 °F 26 °F (2010)
Degree Days  
Heating Degree Days 29    
Moisture  
Dew Point 34 °F    
Average Humidity 84    
Maximum Humidity 93    
Minimum Humidity 76    
Precipitation  
Precipitation 0.00 in 0.13 in - ()
Sea Level Pressure  
Sea Level Pressure 30.71 in    
Wind  
Wind Speed 5 mph ()    
Max Wind Speed 8 mph    
Max Gust Speed -    
Visibility 6.2 miles    
Events      
Averages and records for this station are not official NWS values.
T = Trace of Precipitation, MM = Missing Value Source: Averaged Metar Reports

Daily Weather History Graph

Daily Weather History Graph

Search for Another Location

Airport or City:

Trip Planner

Search our weather history database for the weather conditions in past years. The results will help you decide how hot, cold, wet, or windy it might be!

Date:

Astronomy

Nov. 26, 2013 Rise Set
Actual Time 7:49 AM GMT 4:11 PM GMT
Civil Twilight 7:10 AM GMT 4:50 PM GMT
Nautical Twilight 6:28 AM GMT 5:32 PM GMT
Astronomical Twilight 5:49 AM GMT 6:11 PM GMT
Moon No Moon Rise 12:54 PM GMT
Length of Visible Light 9h 39m
Length of Day
8h 22m
Last Quarter, 43% of the Moon is Illuminated
Nov 26
Last Quarter
Dec 3
New
Dec 9
First Quarter
Dec 17
Full
Dec 25
Last Quarter

Hourly Weather History & Observations

Time (GMT) Temp. Windchill Dew Point Humidity Pressure Visibility Wind Dir Wind Speed Gust Speed Precip Events Conditions
12:20 AM 33.8 °F 27.7 °F 28.4 °F 81% 30.74 in 6.2 mi North 6.9 mph - N/A   Unknown
12:50 AM 33.8 °F 28.6 °F 28.4 °F 81% 30.74 in - North 5.8 mph - N/A   Clear
1:20 AM 33.8 °F 27.7 °F 28.4 °F 81% 30.74 in - North 6.9 mph - N/A   Clear
1:50 AM 32.0 °F 25.6 °F 28.4 °F 87% 30.74 in - North 6.9 mph - N/A   Clear
2:20 AM 32.0 °F 24.8 °F 28.4 °F 87% 30.74 in - North 8.1 mph - N/A   Clear
2:50 AM 32.0 °F 24.8 °F 28.4 °F 87% 30.74 in - North 8.1 mph - N/A   Clear
3:20 AM 32.0 °F 28.7 °F 26.6 °F 80% 30.71 in 6.2 mi NE 3.5 mph - N/A   Unknown
3:50 AM 32.0 °F 27.5 °F 28.4 °F 87% 30.71 in 6.2 mi North 4.6 mph - N/A   Unknown
4:20 AM 32.0 °F 28.7 °F 28.4 °F 87% 30.71 in 6.2 mi NNE 3.5 mph - N/A   Unknown
4:50 AM 30.2 °F 26.7 °F 26.6 °F 86% 30.74 in 6.2 mi NNE 3.5 mph - N/A   Unknown
5:20 AM 28.4 °F 22.2 °F 26.6 °F 93% 30.74 in 6.2 mi North 5.8 mph - N/A   Scattered Clouds
5:50 AM 32.0 °F 26.4 °F 28.4 °F 87% 30.74 in 6.2 mi North 5.8 mph - N/A   Mostly Cloudy
6:20 AM 33.8 °F 29.6 °F 30.2 °F 87% 30.71 in 6.2 mi North 4.6 mph - N/A   Overcast
6:50 AM 32.0 °F 26.4 °F 30.2 °F 93% 30.74 in 6.2 mi North 5.8 mph - N/A   Overcast
7:20 AM 35.6 °F 30.7 °F 32.0 °F 87% 30.71 in 6.2 mi North 5.8 mph - N/A   Overcast
7:50 AM 35.6 °F 31.7 °F 32.0 °F 87% 30.71 in 6.2 mi North 4.6 mph - N/A   Mostly Cloudy
8:20 AM 37.4 °F 33.8 °F 32.0 °F 81% 30.71 in 6.2 mi NNW 4.6 mph - N/A   Mostly Cloudy
8:50 AM 37.4 °F 34.9 °F 32.0 °F 81% 30.74 in 6.2 mi NNW 3.5 mph - N/A   Mostly Cloudy
9:20 AM 37.4 °F 34.9 °F 33.8 °F 87% 30.74 in 6.2 mi NNW 3.5 mph - N/A   Mostly Cloudy
9:50 AM 39.2 °F 35.9 °F 33.8 °F 81% 30.74 in 6.2 mi North 4.6 mph - N/A   Mostly Cloudy
10:20 AM 39.2 °F 37.0 °F 35.6 °F 87% 30.74 in 6.2 mi North 3.5 mph - N/A   Mostly Cloudy
10:50 AM 41.0 °F 39.0 °F 35.6 °F 81% 30.74 in 6.2 mi North 3.5 mph - N/A   Mostly Cloudy
11:20 AM 42.8 °F 40.1 °F 37.4 °F 81% 30.74 in 6.2 mi North 4.6 mph - N/A   Mostly Cloudy
11:50 AM 42.8 °F 41.1 °F 37.4 °F 81% 30.74 in 6.2 mi NNW 3.5 mph - N/A   Mostly Cloudy
12:20 PM 42.8 °F 41.1 °F 37.4 °F 81% 30.74 in 6.2 mi Variable 3.5 mph - N/A   Mostly Cloudy
12:50 PM 42.8 °F 40.1 °F 37.4 °F 81% 30.71 in 6.2 mi WNW 4.6 mph - N/A   Mostly Cloudy
1:20 PM 44.6 °F 42.2 °F 37.4 °F 76% 30.71 in 6.2 mi NW 4.6 mph - N/A   Mostly Cloudy
1:50 PM 44.6 °F 42.2 °F 37.4 °F 76% 30.71 in 6.2 mi WNW 4.6 mph - N/A   Mostly Cloudy
2:20 PM 44.6 °F 43.1 °F 37.4 °F 76% 30.71 in 6.2 mi NW 3.5 mph - N/A   Mostly Cloudy
2:50 PM 44.6 °F 43.1 °F 39.2 °F 81% 30.69 in 6.2 mi West 3.5 mph - N/A   Mostly Cloudy
3:20 PM 44.6 °F - 39.2 °F 81% 30.69 in 6.2 mi West 2.3 mph - N/A   Mostly Cloudy
3:50 PM 44.6 °F 42.2 °F 37.4 °F 76% 30.69 in 6.2 mi WNW 4.6 mph - N/A   Mostly Cloudy
4:20 PM 42.8 °F 39.3 °F 37.4 °F 81% 30.69 in 6.2 mi NW 5.8 mph - N/A   Mostly Cloudy
4:50 PM 42.8 °F 40.1 °F 37.4 °F 81% 30.69 in 6.2 mi NW 4.6 mph - N/A   Mostly Cloudy
5:20 PM 42.8 °F 40.1 °F 37.4 °F 81% 30.69 in 6.2 mi NW 4.6 mph - N/A   Mostly Cloudy
5:50 PM 42.8 °F 40.1 °F 37.4 °F 81% 30.69 in 6.2 mi WNW 4.6 mph - N/A   Mostly Cloudy
6:20 PM 42.8 °F 39.3 °F 37.4 °F 81% 30.69 in 6.2 mi WNW 5.8 mph - N/A   Mostly Cloudy
6:50 PM 42.8 °F 38.6 °F 37.4 °F 81% 30.69 in 6.2 mi NW 6.9 mph - N/A   Mostly Cloudy
7:20 PM 41.0 °F 37.1 °F 37.4 °F 87% 30.69 in 6.2 mi NW 5.8 mph - N/A   Mostly Cloudy
7:50 PM 41.0 °F 37.1 °F 37.4 °F 87% 30.69 in 6.2 mi NW 5.8 mph - N/A   Mostly Cloudy
8:20 PM 41.0 °F 36.4 °F 37.4 °F 87% 30.69 in 6.2 mi NW 6.9 mph - N/A   Scattered Clouds
8:50 PM 39.2 °F 33.6 °F 37.4 °F 93% 30.66 in 6.2 mi WNW 8.1 mph - N/A   Mostly Cloudy
9:20 PM 41.0 °F 35.8 °F 37.4 °F 87% 30.66 in 6.2 mi NW 8.1 mph - N/A   Mostly Cloudy
9:50 PM 41.0 °F 35.8 °F 37.4 °F 87% 30.66 in 6.2 mi NW 8.1 mph - N/A   Partly Cloudy
10:20 PM 41.0 °F 35.8 °F 39.2 °F 93% 30.66 in 6.2 mi NW 8.1 mph - N/A   Partly Cloudy
10:50 PM 41.0 °F 35.8 °F 39.2 °F 93% 30.66 in 6.2 mi NW 8.1 mph - N/A   Unknown
11:20 PM 41.0 °F 35.8 °F 39.2 °F 93% 30.63 in 6.2 mi WNW 8.1 mph - N/A   Partly Cloudy
11:50 PM 42.8 °F 38.0 °F 39.2 °F 87% 30.63 in 6.2 mi WNW 8.1 mph - N/A   Unknown